Terminal Aerodrome Forecast
Issued by NWS Denver/Boulder, CO

Home | Current Version | Previous Version | Text Only | Print | Product List | Glossary On
Versions: 1 2 3 4 5 6 7 8 9 10 11 12 13 14 15 16 17 18 19 20 21 22 23 24 25 26 27 28 29 30 31 32 33 34 35 36 37 38 39 40 41 42 43 44 45 46 47 48 49 50
000
FTUS45 KBOU 220224 AAB
TAFDEN
TAF AMD
KDEN 220224Z 2202/2306 33007KT P6SM SCT060 OVC120
     FM220600 35012G20KT P6SM VCSH BKN060 OVC090
     FM220900 25007KT P6SM VCSH BKN060 BKN120
     FM221800 34015G25KT P6SM SCT060 BKN090
     FM230000 34012KT P6SM SCT090 BKN150=

USA.gov is the U.S. government's official web portal to all federal, state and local government web resources and services.